Flag for Germany Weather past 2 weeks in Dreieich, Hesse, Germany

Now
84 °F

Broken clouds.


Feels Like: 83 °F
Forecast: 57 / 82 °F
Wind: 15 mph from East

Location: Frankfurt-M-Flughafen Airport

Current Time: Jul 23, 2014 at 2:42:46 PM

Latest Report: Jul 23, 2014 at 1:50 PM


Visibility: N/A

Pressure: 30.01 "Hg

Humidity: 37%

Dew point: 55 °F

Location of DreieichLocation

Historic Weather in Dreieich — Graph

°F

Dreieich temperature yesterday

Maximum temperature yesterday: 84 °F (at 5:20 PM)
Minimum temperature yesterday: 68 °F (at 5:20 AM)
Average temperature yesterday: 75 °F

Past Weeks' High & Low Weather Summary

 TemperatureHumidityPressure
High93 °F (Jul 19, 4:20 PM)100% (Jul 8, 1:20 PM)30.18 "Hg (Jul 8, 1:20 PM)
Low54 °F (Jul 9, 5:50 AM)23% (Jul 18, 6:20 PM)29.71 "Hg (Jul 9, 3:50 PM)
Average70 °F73%29.94 "Hg
* Reported Jul 8 1:20 PM — Jul 23 1:20 PM, Dreieich, Weather by CustomWeather, © 2014

Note: Actual official high and low records may vary slightly from our data, if they occured in-between our weather recording intervals... More about our weather records

Advertising

Dreieich weather history for previous 24 hours

 ConditionsComfort  
Time TempWeatherWind HumidityBarometerVisibility
1:20 PM
Jul 23
84 °FPassing clouds.12 mph35%30.01 "HgN/A
12:20 PM81 °FPartly sunny.10 mph45%30.01 "HgN/A
11:20 AM79 °FSunny.9 mph58%30.04 "Hg10 mi
7:50 AM70 °FSunny.12 mph73%30.04 "Hg10 mi
7:20 AM70 °FSunny.12 mph73%30.04 "Hg10 mi
6:50 AM68 °FSunny.10 mph73%30.04 "Hg10 mi
6:20 AM68 °FClear.9 mph73%30.04 "Hg10 mi
5:50 AM70 °FClear.10 mph69%30.04 "Hg10 mi
5:20 AM70 °FClear.10 mph69%30.04 "Hg10 mi
4:50 AM70 °FClear.10 mph69%30.01 "Hg10 mi
4:20 AM70 °FClear.13 mph69%30.04 "Hg10 mi
3:50 AM72 °FClear.12 mph65%30.04 "Hg10 mi
3:20 AM72 °FClear.10 mph69%30.04 "Hg10 mi
2:50 AM72 °FClear.12 mph69%30.04 "Hg10 mi
2:20 AM72 °FClear.13 mph69%30.04 "Hg10 mi
1:50 AM73 °FClear.10 mph65%30.04 "Hg10 mi
6:50 PM
Jul 22
84 °FSunny.14 mph37%29.98 "Hg10 mi
6:20 PM84 °FSunny.14 mph35%29.95 "Hg10 mi
5:50 PM84 °FSunny.15 mph35%29.95 "Hg10 mi
5:20 PM84 °FSunny.15 mph37%29.95 "Hg10 mi
4:50 PM82 °FSunny.15 mph42%29.95 "Hg10 mi
4:20 PM82 °FSunny.15 mph42%29.98 "Hg10 mi
3:50 PM82 °FBroken clouds.13 mph45%29.98 "HgN/A
3:20 PM82 °FBroken clouds.15 mph45%29.95 "HgN/A
2:50 PM82 °FBroken clouds.14 mph48%29.98 "HgN/A
2:20 PM81 °FPartly sunny.15 mph48%29.98 "HgN/A
Weather by CustomWeather, © 2014

See weather overviewHow to use our weather pages